Location: Unspecified
(0.0000°N, 0.0000°E)
Time: 20:55:32
(UTC+00:00)

STARLINK-1042 - Pass Details

Date: 23 January 2020
Orbit: 549 x 550 km, 53.0° (Epoch: 29 September)

Event Time Altitude Azimuth Distance (km) Brightness Sun altitude
Exits shadow 04:49:05 51° 287° (WNW) 692 3.7 -19.4°
Maximum altitude 04:49:23 52° 304° (NW) 681 3.6 -19.3°
Drops below altitude 10° 04:53:23 10° 21° (NNE) 1,808 6.3 -18.4°
Sets 04:55:38 0° 26° (NNE) 2,697 7.2 -17.9°
